CW4482 Weather Reports


Display with metric or nautical units.
time (UTC)temp
F
wind
direction
speed
MPH
gust
MPH
rain 1hr
in
rain 24hr
in
rain mn
in
humidity
%
barometer
mb
20260831031515 82 360 1.0 5.0 0.00 0.00 0.00 78 1014.3
20260831030019 82 360 0.0 4.0 0.00 0.00 0.00 76 1014.1
20260831024526 82 360 2.0 5.0 0.00 0.00 0.00 76 1014.0
20260831023029 83 360 0.0 2.0 0.00 0.00 0.00 75 1013.8
20260831021537 83 360 1.0 3.0 0.00 0.00 0.00 75 1013.5
20260831020042 84 360 1.0 3.0 0.00 0.00 0.00 75 1013.4
20260831014525 84 360 1.0 3.0 0.00 0.00 0.00 74 1013.3
20260831013034 85 360 0.0 2.0 0.00 0.00 0.00 72 1013.3
20260831011537 86 360 2.0 6.0 0.00 0.00 0.00 69 1013.2
20260831010026 87 360 1.0 3.0 0.00 0.00 0.00 67 1013.0
20260831004511 87 360 3.0 4.0 0.00 0.00 0.00 65 1013.0
20260831003019 89 360 1.0 5.0 0.00 0.00 0.00 63 1013.0
20260831001523 90 360 2.0 5.0 0.00 0.00 0.00 59 1013.1
20260831000032 92 360 1.0 11.0 0.00 0.00 0.00 57 1013.0
20260830234515 93 360 2.0 9.0 0.00 0.00 0.00 55 1013.0
20260830233024 94 360 4.0 10.0 0.00 0.00 0.00 50 1012.9
20260830231528 97 360 3.0 11.0 0.00 0.00 0.00 45 1013.0
20260830230018 99 360 4.0 10.0 0.00 0.00 0.00 42 1012.9
20260830224522 98 360 4.0 10.0 0.00 0.00 0.00 42 1012.9
20260830223010 99 360 3.0 12.0 0.00 0.00 0.00 45 1012.8
20260830221515 100 360 4.0 11.0 0.00 0.00 0.00 43 1012.8
20260830220038 101 360 4.0 9.0 0.00 0.00 0.00 38 1012.8
20260830214527 101 360 4.0 9.0 0.00 0.00 0.00 41 1012.8
20260830213019 100 5 2.0 6.0 0.00 0.00 0.00 44 1012.9
20260830211523 100 5 3.0 9.0 0.00 0.00 0.00 39 1013.1
20260830210027 100 5 2.0 8.0 0.00 0.00 0.00 42 1013.4
20260830204516 100 5 1.0 13.0 0.00 0.00 0.00 43 1013.5
20260830203041 100 5 3.0 12.0 0.00 0.00 0.00 45 1013.8
20260830201528 96 5 3.0 9.0 0.00 0.00 0.00 50 1013.9
20260830200013 95 0.0 0.0 0.00 0.00 0.00 54 1014.1
20260830194522 98 0.0 0.0 0.00 0.00 0.00 49 1014.3
20260830193018 97 107 1.0 5.0 0.00 0.00 0.00 52 1014.5
20260830191526 96 100 0.0 7.0 0.00 0.00 0.00 55 1014.9
20260830190022 96 0.0 0.0 0.00 0.00 0.00 52 1015.1
20260830184543 96 0.0 0.0 0.00 0.00 0.00 53 1015.4
20260830183028 97 0.0 0.0 0.00 0.00 0.00 48 1015.4
20260830181513 96 210 0.0 0.0 0.00 0.00 0.00 50 1015.8
20260830180020 96 212 0.0 0.0 0.00 0.00 0.00 50 1016.0
20260830174524 94 238 0.0 0.0 0.00 0.00 0.00 53 1016.2
20260830173012 92 231 0.0 0.0 0.00 0.00 0.00 58 1016.4
20260830171517 90 227 0.0 0.0 0.00 0.00 0.00 64 1016.6
20260830170024 89 227 0.0 0.0 0.00 0.00 0.00 63 1016.6
20260830164529 89 227 0.0 0.0 0.00 0.00 0.00 62 1016.8
20260830163018 88 211 0.0 0.0 0.00 0.00 0.00 68 1016.7
20260830161520 87 211 0.0 0.0 0.00 0.00 0.00 68 1016.8
20260830160046 86 211 0.0 0.0 0.00 0.00 0.00 71 1016.8
20260830154529 86 211 0.0 0.0 0.00 0.00 0.00 70 1016.9
20260830153017 85 214 0.0 0.0 0.00 0.00 0.00 74 1016.9
20260830151519 85 214 0.0 0.0 0.00 0.00 0.00 80 1016.9
20260830150009 84 215 0.0 0.0 0.00 0.00 0.00 75 1017.0
20260830144514 83 210 0.0 0.0 0.00 0.00 0.00 79 1017.0
20260830143021 82 211 0.0 0.0 0.00 0.00 0.00 82 1017.0
20260830141524 81 209 0.0 0.0 0.00 0.00 0.00 85 1017.1
20260830140010 80 209 0.0 0.0 0.00 0.00 0.00 89 1016.9
20260830134515 80 209 0.0 0.0 0.00 0.00 0.00 89 1016.8
20260830133022 79 209 0.0 0.0 0.00 0.00 0.00 90 1016.5
20260830131526 77 209 0.0 0.0 0.00 0.00 0.00 92 1016.3
20260830130012 76 209 0.0 0.0 0.00 0.00 0.00 91 1016.3
20260830124527 76 209 0.0 0.0 0.00 0.00 0.00 91 1016.2
20260830123021 76 209 0.0 0.0 0.00 0.00 0.00 91 1016.3
20260830120010 76 209 0.0 0.0 0.00 0.42 0.00 91 1016.0
20260830114515 76 209 0.0 0.0 0.00 0.42 0.00 90 1016.1
20260830113023 76 198 0.0 0.0 0.00 0.42 0.00 90 1015.9
20260830111528 76 198 0.0 0.0 0.00 0.42 0.00 90 1015.9
20260830110031 76 198 0.0 0.0 0.00 0.42 0.00 90 1015.8
20260830104535 76 198 0.0 0.0 0.00 0.42 0.00 90 1015.7
20260830103020 76 198 0.0 0.0 0.00 0.42 0.00 90 1015.5
20260830101543 76 198 0.0 0.0 0.00 0.42 0.00 90 1015.4
20260830100010 76 198 0.0 0.0 0.00 0.42 0.00 90 1015.3
20260830094515 77 198 0.0 0.0 0.00 0.42 0.00 90 1015.3
20260830093015 77 198 0.0 0.0 0.00 0.42 0.00 90 1015.2
20260830091543 77 198 0.0 0.0 0.00 0.42 0.00 89 1015.3
20260830090026 77 198 0.0 0.0 0.00 0.42 0.00 89 1015.3
20260830084514 77 198 0.0 0.0 0.00 0.42 0.00 89 1015.3
20260830083018 77 198 0.0 0.0 0.00 0.42 0.00 89 1015.4
20260830081523 77 198 0.0 0.0 0.00 0.42 0.00 89 1015.4
20260830080026 77 198 0.0 0.0 0.00 0.42 0.00 88 1015.3
20260830074515 77 198 0.0 0.0 0.00 0.42 0.00 88 1015.4
20260830073018 77 198 0.0 0.0 0.00 0.42 0.00 88 1015.6
20260830071525 78 198 0.0 0.0 0.00 0.42 0.00 88 1015.7
20260830070028 78 198 0.0 0.0 0.00 0.42 0.00 87 1015.6
20260830064516 78 198 0.0 0.0 0.00 0.42 0.00 87 1015.5
20260830063018 78 198 0.0 0.0 0.00 0.42 0.00 87 1015.5
20260830061525 79 198 0.0 0.0 0.00 0.42 0.00 87 1015.6
20260830060027 79 198 0.0 0.0 0.00 0.42 0.00 87 1015.5
20260830054516 79 198 0.0 0.0 0.00 0.42 0.00 86 1015.5
20260830053039 79 198 0.0 0.0 0.00 0.42 0.00 86 1015.5
20260830051522 80 198 0.0 0.0 0.00 0.42 0.00 86 1015.4
20260830050030 80 198 0.0 0.0 0.00 0.42 0.00 85 1015.4
20260830044535 80 198 0.0 0.0 0.00 0.42 0.42 84 1015.5
20260830043040 80 198 0.0 0.0 0.00 0.42 0.42 84 1015.5
20260830041523 81 198 0.0 0.0 0.00 0.42 0.42 83 1015.5
20260830040010 81 198 0.0 0.0 0.00 0.42 0.42 83 1015.4
20260830034535 82 197 0.0 0.0 0.00 7.87 0.42 81 1015.4
20260830033021 82 197 0.0 0.0 0.00 7.87 0.42 81 1015.3